When you browse on this site, cookies collect data to enhance your experience and personalize the content and advertising you see.
Visit our Privacy Policy to learn more. By continuing to use the site, you agree to this use of cookies and data.
  • In Sweden
  • List of Countries
  • For 7 days
  • Water Temperature
  • Weather Map
  • Weather Widgets
  • user-avatar
    Login

    Hourly Weather Kurytyba

    Today, 24 August, Saturday

    Time Temperature Precipitation Wind Pressure Humidity
    00:00 +13°C° 0 mm 2 mps 685 mmHg 91%
    01:00 +12°C° 0 mm 2 mps 685 mmHg 90%
    02:00 +12°C° 0 mm 2 mps 685 mmHg 89%
    03:00 +12°C° 0 mm 2 mps 685 mmHg 88%
    04:00 +12°C° 0 mm 1 mps 685 mmHg 89%
    05:00 +11°C° 0 mm 1 mps 685 mmHg 90%
    06:00 +11°C° 0 mm 1 mps 685 mmHg 91%
    07:00 +12°C° 0 mm 1 mps 685 mmHg 87%
    08:00 +12°C° 0 mm 1 mps 686 mmHg 83%
    09:00 +13°C° 0 mm 1 mps 687 mmHg 80%
    10:00 +14°C° 0 mm 1 mps 687 mmHg 74%
    11:00 +15°C° 0 mm 1 mps 687 mmHg 67%
    12:00 +18°C° 0 mm 1 mps 687 mmHg 61%
    13:00 +17°C° 0 mm 2 mps 687 mmHg 60%
    14:00 +18°C° 0 mm 2 mps 687 mmHg 58%
    15:00 +18°C° 0 mm 2 mps 686 mmHg 57%
    16:00 +17°C° 0 mm 2 mps 686 mmHg 65%
    17:00 +15°C° 0 mm 2 mps 686 mmHg 74%
    18:00 +13°C° 0 mm 2 mps 686 mmHg 83%
    19:00 +13°C° 0 mm 2 mps 686 mmHg 86%
    20:00 +12°C° 0 mm 2 mps 687 mmHg 88%
    21:00 +10°C° 0 mm 2 mps 687 mmHg 91%
    22:00 +10°C° 0 mm 2 mps 687 mmHg 91%
    23:00 +10°C° 0 mm 2 mps 687 mmHg 90%

    Tomorrow, 25 August, Sunday

    Time Temperature Precipitation Wind Pressure Humidity
    00:00 +10°C° 0 mm 2 mps 687 mmHg 89%
    01:00 +10°C° 0 mm 2 mps 687 mmHg 88%
    02:00 +10°C° 0 mm 2 mps 687 mmHg 87%
    03:00 +10°C° 0 mm 2 mps 687 mmHg 86%
    04:00 +11°C° 0 mm 1 mps 687 mmHg 86%
    05:00 +11°C° 0 mm 1 mps 687 mmHg 86%
    06:00 +11°C° 0 mm 1 mps 687 mmHg 86%
    07:00 +11°C° 0 mm 1 mps 688 mmHg 82%
    08:00 +12°C° 0 mm 1 mps 688 mmHg 79%
    09:00 +13°C° 0 mm 2 mps 689 mmHg 76%
    10:00 +14°C° 0 mm 2 mps 689 mmHg 69%
    11:00 +16°C° 0 mm 2 mps 689 mmHg 62%
    12:00 +18°C° 0 mm 2 mps 689 mmHg 56%
    13:00 +18°C° 0 mm 2 mps 688 mmHg 56%
    14:00 +18°C° 0 mm 2 mps 688 mmHg 56%
    15:00 +19°C° 0 mm 2 mps 687 mmHg 56%
    16:00 +17°C° 0 mm 2 mps 687 mmHg 65%
    17:00 +15°C° 0 mm 2 mps 686 mmHg 74%
    18:00 +13°C° 0 mm 2 mps 686 mmHg 83%
    19:00 +12°C° 0 mm 2 mps 686 mmHg 86%
    20:00 +12°C° 0 mm 2 mps 687 mmHg 88%
    21:00 +10°C° 0 mm 2 mps 687 mmHg 91%
    22:00 +10°C° 0 mm 2 mps 687 mmHg 91%
    23:00 +9°C° 0 mm 2 mps 687 mmHg 90%

    Day after tomorrow, 26 August, Monday

    Time Temperature Precipitation Wind Pressure Humidity
    00:00 +9°C° 0 mm 2 mps 687 mmHg 90%
    01:00 +10°C° 0 mm 1 mps 687 mmHg 91%
    02:00 +10°C° 0 mm 1 mps 686 mmHg 91%
    03:00 +9°C° 0 mm 1 mps 686 mmHg 92%
    04:00 +9°C° 0 mm 1 mps 686 mmHg 93%
    05:00 +9°C° 0 mm 1 mps 686 mmHg 94%
    06:00 +8°C° 0 mm 1 mps 686 mmHg 95%
    07:00 +10°C° 0 mm 1 mps 686 mmHg 88%
    08:00 +12°C° 0 mm 1 mps 687 mmHg 80%
    09:00 +13°C° 0 mm 1 mps 688 mmHg 73%
    10:00 +16°C° 0 mm 1 mps 688 mmHg 65%
    11:00 +20°C° 0 mm 1 mps 688 mmHg 57%
    12:00 +21°C° 0 mm 2 mps 688 mmHg 50%
    13:00 +23°C° 0 mm 2 mps 687 mmHg 49%
    14:00 +24°C° 0 mm 1 mps 687 mmHg 47%
    15:00 +24°C° 0 mm 1 mps 687 mmHg 46%
    16:00 +22°C° 0 mm 1 mps 686 mmHg 58%
    17:00 +20°C° 0 mm 1 mps 686 mmHg 69%
    18:00 +16°C° 0 mm 1 mps 685 mmHg 80%
    19:00 +16°C° 0 mm 1 mps 686 mmHg 85%
    20:00 +15°C° 0 mm 1 mps 686 mmHg 89%
    21:00 +14°C° 0 mm 1 mps 686 mmHg 94%
    22:00 +13°C° 0 mm 1 mps 686 mmHg 94%
    23:00 +13°C° 0 mm 1 mps 687 mmHg 95%

    27 August, Tuesday

    Time Temperature Precipitation Wind Pressure Humidity
    00:00 +13°C° 0 mm 1 mps 687 mmHg 95%
    01:00 +13°C° 0 mm 1 mps 686 mmHg 96%
    02:00 +11°C° 0 mm 0 mps 686 mmHg 96%
    03:00 +11°C° 0 mm 0 mps 686 mmHg 96%
    04:00 +11°C° 0 mm 0 mps 686 mmHg 96%
    05:00 +11°C° 0 mm 0 mps 686 mmHg 96%
    06:00 +11°C° 0 mm 0 mps 685 mmHg 96%
    07:00 +13°C° 0 mm 0 mps 686 mmHg 87%
    08:00 +15°C° 0 mm 0 mps 687 mmHg 78%
    09:00 +19°C° 0 mm 1 mps 688 mmHg 69%
    10:00 +21°C° 0 mm 1 mps 688 mmHg 61%
    11:00 +23°C° 0 mm 1 mps 688 mmHg 53%
    12:00 +25°C° 0 mm 1 mps 688 mmHg 45%
    13:00 +25°C° 0 mm 1 mps 688 mmHg 44%
    14:00 +26°C° 0 mm 1 mps 688 mmHg 43%
    15:00 +26°C° 0 mm 1 mps 687 mmHg 42%
    16:00 +24°C° 0 mm 1 mps 687 mmHg 54%
    17:00 +22°C° 0 mm 1 mps 687 mmHg 66%
    18:00 +18°C° 0 mm 2 mps 686 mmHg 78%
    19:00 +19°C° 0 mm 1 mps 686 mmHg 83%
    20:00 +18°C° 0 mm 1 mps 687 mmHg 88%
    21:00 +16°C° 0 mm 1 mps 687 mmHg 92%
    22:00 +15°C° 0 mm 1 mps 687 mmHg 93%
    23:00 +15°C° 0 mm 1 mps 687 mmHg 93%

    28 August, Wednesday

    Time Temperature Precipitation Wind Pressure Humidity
    00:00 +15°C° 0 mm 1 mps 687 mmHg 93%
    01:00 +14°C° 0 mm 1 mps 686 mmHg 93%
    02:00 +14°C° 0 mm 1 mps 686 mmHg 94%
    03:00 +14°C° 0 mm 1 mps 686 mmHg 94%
    04:00 +14°C° 0 mm 1 mps 686 mmHg 95%
    05:00 +13°C° 0 mm 1 mps 686 mmHg 96%
    06:00 +13°C° 0 mm 1 mps 686 mmHg 96%
    07:00 +15°C° 0 mm 1 mps 686 mmHg 88%
    08:00 +16°C° 0 mm 1 mps 687 mmHg 80%
    09:00 +19°C° 0 mm 1 mps 688 mmHg 72%
    10:00 +21°C° 0 mm 1 mps 688 mmHg 63%
    11:00 +23°C° 0 mm 1 mps 688 mmHg 54%
    12:00 +25°C° 0 mm 1 mps 688 mmHg 45%
    13:00 +26°C° 0 mm 2 mps 688 mmHg 45%
    14:00 +26°C° 0 mm 2 mps 687 mmHg 45%
    15:00 +26°C° 0 mm 2 mps 686 mmHg 45%
    16:00 +24°C° 0 mm 2 mps 686 mmHg 55%
    17:00 +21°C° 0 mm 2 mps 685 mmHg 65%
    18:00 +19°C° 0 mm 2 mps 685 mmHg 75%
    19:00 +18°C° 0 mm 2 mps 685 mmHg 80%
    20:00 +18°C° 0 mm 1 mps 685 mmHg 86%
    21:00 +15°C° 0 mm 1 mps 686 mmHg 91%
    22:00 +15°C° 0 mm 1 mps 685 mmHg 92%
    23:00 +15°C° 0 mm 1 mps 685 mmHg 93%

    29 August, Thursday

    Time Temperature Precipitation Wind Pressure Humidity
    00:00 +15°C° 0 mm 1 mps 685 mmHg 93%
    01:00 +14°C° 0 mm 1 mps 685 mmHg 93%
    02:00 +14°C° 0 mm 1 mps 684 mmHg 93%
    03:00 +13°C° 0 mm 0 mps 684 mmHg 93%
    04:00 +14°C° 0 mm 1 mps 684 mmHg 92%
    05:00 +14°C° 0 mm 1 mps 684 mmHg 91%
    06:00 +13°C° 0 mm 1 mps 684 mmHg 90%
    07:00 +16°C° 0 mm 1 mps 685 mmHg 80%
    08:00 +19°C° 0 mm 1 mps 685 mmHg 70%
    09:00 +21°C° 0 mm 1 mps 686 mmHg 60%
    10:00 +23°C° 0 mm 2 mps 686 mmHg 52%
    11:00 +25°C° 0 mm 2 mps 686 mmHg 45%
    12:00 +27°C° 0 mm 2 mps 686 mmHg 38%
    13:00 +27°C° 0 mm 2 mps 685 mmHg 36%
    14:00 +28°C° 0 mm 2 mps 685 mmHg 35%
    15:00 +28°C° 0 mm 1 mps 684 mmHg 33%
    16:00 +26°C° 0 mm 1 mps 684 mmHg 42%
    17:00 +24°C° 0 mm 1 mps 683 mmHg 52%
    18:00 +22°C° 0 mm 1 mps 683 mmHg 61%
    19:00 +21°C° 0 mm 1 mps 683 mmHg 65%
    20:00 +20°C° 0 mm 1 mps 683 mmHg 68%
    21:00 +17°C° 0 mm 0 mps 684 mmHg 71%
    22:00 +18°C° 0 mm 1 mps 684 mmHg 72%
    23:00 +18°C° 0 mm 1 mps 683 mmHg 72%
    Show more